Voltar ao catálogo

KUIPER-00517

AtivoComunicaçõesVLEO
NORAD 69600·PAYLOAD·🇺🇸 United States

Lançado Jun 17, 2026 de Guiana Space Centre

Loading…

Próximas Passagens (próximas 24 horas)

TLE

AtualizadoSource: CelesTrak SupGP

Época: Sep 14, 2026, 21:10 UTC

1 69600C 26140J   26257.88243056 -.01026300  00000+0 -30265-1 0  2579
2 69600  51.8778 324.8388 0009225 150.0110 244.9247 15.35401603    12

Acompanhe KUIPER-00517 em tempo real com AllMySat

Download on the App Store